Simultaneous Nadir Overpasses (SNOs) Predictions

Prediction of SNOs between METOP-A and NOAA-19 Satellite Orbit:

Table of predicted SNOs for the next 14.0 days since TLE Epoch: 6/22/2018
Index Date (METOP-A) Time (METOP-A) Lat,Lon (METOP-A) SZA (METOP-A ) Date (NOAA-19) Time (NOAA-19) Lat,Lon (NOAA-19) SZA (NOAA-19 ) Distance(km) Time Diff (sec)
1 07/02/2018 17:50:42 78.91, -77.21 56.02 07/02/2018 17:49:36 78.92, -80.84 55.92 77.74 66
2 07/02/2018 18:41:30 -78.65, 88.50 124.30 07/02/2018 18:40:30 -78.64, 88.42 124.31 2.02 60
3 07/02/2018 19:32:11 78.62,-104.33 55.68 07/02/2018 19:31:29 78.64,-104.32 55.69 2.02 42
4 07/02/2018 20:22:52 -78.63, 63.04 124.31 07/02/2018 20:22:31 -78.63, 62.95 124.31 2.07 21
5 07/02/2018 21:13:33 78.60,-129.79 55.66 07/02/2018 21:13:30 78.63,-129.79 55.69 3.82 3
6 07/02/2018 22:04:14 -78.60, 37.57 124.33 07/02/2018 22:04:32 -78.63, 37.48 124.31 3.37 18
7 07/02/2018 22:54:54 78.62,-155.03 55.69 07/02/2018 22:55:30 78.59,-155.02 55.67 2.59 36
8 07/02/2018 23:45:36 -78.58, 12.11 124.35 07/02/2018 23:46:32 -78.59, 12.25 124.34 3.19 56
9 07/03/2018 00:36:16 78.59, 179.50 55.67 07/03/2018 00:37:31 78.59, 179.52 55.67 0.81 75




NCC Satellite Simultaneous Nadir Overpasses (SNOs) Prediction Service
